Temp
80 83 82 81 85 67 73 74 69 75 83 81 65 63 64 66 65 62 67 67 72 78 81 86 87 85 85 86 86 86 85 85 83 83 84 85 85 85 85 85 85 84 84 84 84 84 84 84 84 83 82 82 82 82 82 81 81 82 81 81 81 81 81
79 85 85 85 84 85 75 69 75 76 80 81 72 64 60 63 60 61 64 65 69 70 68 81 80 81 85 86 84 87 84 83 81 83 83 83 84 84 85 84 84 84 84 84 85 86 86 85 85 83 82 83 83 83 83 82 81 81 82 81 81 81 81
82 80 80 81 85 84 81 78 85 76 64 64 65 67 55 56 55 60 62 67 70 72 72 81 83 84 85 85 86 85 82 82 82 83 83 83 85 85 84 85 84 84 85 85 84 86 87 86 84 84 83 84 84 84 84 84 82 83 83 83 82 81 81
78 78 78 68 76 79 78 81 80 82 79 70 64 67 68 67 60 58 61 61 63 72 77 82 83 85 85 86 86 85 85 82 82 83 84 83 83 83 84 85 85 85 86 87 87 86 87 85 84 85 86 86 86 85 83 83 84 83 83 82 81 80 81
76 69 74 73 77 72 73 75 74 74 76 78 79 74 70 66 62 60 61 58 66 74 80 82 84 85 86 87 86 86 87 86 85 84 84 83 83 83 84 85 85 86 86 88 88 88 88 87 86 87 88 87 87 87 85 85 83 83 83 82 82 81 81
68 74 79 80 81 82 78 76 73 76 71 67 63 62 70 68 67 55 60 60 70 80 82 80 84 86 88 89 87 87 89 90 86 85 86 84 83 83 84 86 87 87 87 87 88 88 87 87 87 87 88 87 87 87 87 87 87 85 86 83 81 81 80
72 77 81 81 84 85 83 81 77 80 79 77 69 58 62 67 68 69 68 65 69 84 83 82 83 86 89 90 88 85 87 87 87 85 87 85 84 84 86 86 88 88 86 86 86 84 84 84 84 85 86 87 87 87 87 87 86 86 88 86 83 81 80
76 79 78 77 78 81 79 80 83 80 75 78 74 72 70 69 66 65 65 61 71 83 72 76 82 82 82 79 80 82 86 86 85 83 84 82 81 83 86 86 88 86 86 85 83 82 82 82 83 84 85 85 86 87 88 88 87 87 87 87 84 81 80
65 71 75 75 76 77 76 75 79 81 81 81 79 74 66 67 68 70 65 58 68 81 72 72 73 78 80 83 84 80 80 82 84 83 81 81 81 81 83 83 83 84 84 82 81 81 81 81 83 83 83 84 86 86 87 88 88 88 87 87 85 82 81
51 50 53 59 64 69 75 75 75 76 79 76 70 66 65 60 65 69 66 67 75 81 75 77 78 78 78 81 82 84 81 80 81 81 81 79 80 79 81 81 82 82 81 81 81 81 81 82 82 82 82 84 85 85 86 88 88 87 87 87 85 83 82
61 65 68 73 75 72 69 72 74 75 78 79 77 72 67 64 63 64 67 72 74 76 81 79 81 78 80 83 84 81 81 81 80 79 79 80 79 79 81 80 81 80 80 80 80 81 82 82 82 83 83 84 85 84 84 87 87 87 86 85 83 82 82
70 74 73 74 75 73 74 74 74 77 76 76 74 69 67 69 65 61 67 67 72 76 80 81 81 81 79 80 82 84 81 80 81 79 78 79 80 80 79 79 79 79 79 79 79 80 81 81 82 83 84 84 84 83 84 85 87 87 86 83 81 80 78
73 77 77 76 74 77 77 77 77 75 76 74 72 70 74 69 68 65 70 65 68 76 83 85 84 83 81 83 83 84 83 81 79 77 78 79 80 79 79 78 78 79 78 78 79 80 80 82 81 82 83 83 83 83 85 84 86 86 84 81 80 79 77
72 74 75 75 72 74 76 77 77 78 77 75 76 75 76 73 70 74 75 68 71 80 83 86 87 86 86 86 84 81 81 83 79 79 78 80 80 80 79 79 79 79 79 79 79 79 80 80 81 82 81 81 82 83 84 85 84 85 82 80 79 78 76
69 73 75 74 73 72 72 75 77 79 78 77 77 78 77 74 74 75 72 68 68 79 83 85 85 79 79 79 80 83 81 81 81 80 80 80 81 81 80 79 79 79 79 79 79 79 79 80 80 81 81 82 82 85 85 85 83 84 83 79 79 77 74
65 72 72 73 73 72 71 72 74 74 72 70 72 70 74 70 68 71 71 68 70 80 81 82 81 80 79 79 80 80 80 82 80 79 80 80 80 81 80 80 79 78 79 79 79 79 80 80 81 81 81 81 82 82 84 84 85 84 82 80 78 75 74
63 70 71 71 71 68 63 66 72 75 74 75 76 77 76 76 77 71 68 71 79 82 83 80 79 81 80 80 82 81 80 78 80 80 80 81 81 81 79 78 78 79 81 81 80 81 82 81 81 82 82 82 81 82 82 82 83 82 81 80 76 75 75
64 67 67 68 64 54 58 74 80 77 75 75 73 73 75 76 77 77 80 81 81 81 79 79 80 79 79 80 81 83 82 79 77 81 81 82 82 82 81 80 80 80 81 82 82 82 81 82 85 84 83 82 82 83 83 82 81 80 79 78 76 75 75
62 64 64 60 54 58 73 73 73 79 81 80 77 78 79 79 78 79 75 77 77 78 81 81 82 82 82 80 80 83 83 81 81 79 81 80 80 80 80 80 81 80 80 80 81 80 82 84 83 83 82 83 83 82 82 81 81 79 78 76 75 74 75
64 61 62 50 56 67 70 72 72 72 77 78 77 75 76 74 78 76 76 79 81 78 77 78 78 77 79 79 76 75 79 83 83 82 81 82 83 82 82 80 80 79 80 80 81 80 81 82 83 84 83 84 84 82 82 81 80 78 77 76 75 74 74
58 60 60 60 65 66 68 68 70 71 69 71 71 67 72 76 74 75 75 77 79 76 75 75 77 78 81 80 80 79 79 78 83 86 85 86 84 83 82 83 80 80 80 81 81 80 81 83 83 84 84 84 83 82 81 81 79 78 77 75 75 74 74
62 59 57 59 60 55 65 68 71 73 72 71 70 69 72 70 74 74 74 73 75 75 75 75 76 78 79 76 79 79 79 80 80 82 84 84 83 82 82 80 81 80 81 82 81 83 82 82 84 84 84 83 81 80 80 80 80 78 77 75 75 75 75
61 59 55 55 53 60 66 66 69 72 71 70 72 69 68 74 74 72 72 72 73 74 75 74 76 77 75 77 79 78 78 82 84 82 83 85 84 83 83 82 81 81 80 80 81 81 81 80 81 82 82 82 81 79 79 80 79 77 76 76 76 75 76
60 58 56 55 61 62 63 66 68 70 71 69 69 60 66 72 73 73 71 73 73 73 75 76 76 77 76 78 77 79 80 82 82 79 78 78 80 80 81 82 81 79 78 78 79 80 81 79 79 81 82 81 80 79 78 79 78 77 76 77 77 77 77
57 54 60 61 64 66 65 65 67 69 70 68 62 58 71 69 71 71 71 74 74 74 73 77 76 74 76 77 76 78 79 80 79 80 82 81 82 81 82 80 78 79 80 81 81 81 79 77 79 81 81 79 78 77 77 77 76 78 78 78 77 77 77
58 59 57 59 64 63 64 68 67 70 66 60 64 68 64 67 70 71 74 74 73 75 76 75 73 73 76 77 78 77 78 78 77 78 78 79 79 80 78 77 78 79 80 77 78 77 76 77 78 79 79 77 77 76 76 76 77 79 78 78 77 77 77
56 56 58 55 48 63 69 64 68 68 61 64 63 67 71 71 71 73 73 75 75 75 72 73 73 74 75 76 75 75 75 75 75 76 77 77 77 77 77 76 78 79 77 76 76 74 75 76 77 78 78 76 76 75 75 76 77 78 78 77 77 77 77
53 52 51 53 63 66 69 64 57 63 64 66 68 69 70 72 73 73 72 73 74 75 73 73 73 73 73 73 74 73 73 74 75 75 75 75 75 76 77 78 77 78 75 74 73 73 74 75 76 77 78 76 75 75 75 76 76 76 76 76 76 76 75
59 55 59 61 61 64 69 66 65 66 70 72 72 71 71 72 72 74 73 72 76 76 76 75 74 73 75 74 74 72 72 73 73 72 72 75 76 76 76 75 76 77 76 73 73 72 73 73 74 75 77 76 74 74 73 74 75 75 75 75 75 75 75
60 63 63 66 63 63 66 70 69 69 70 72 72 71 70 70 71 73 72 74 74 75 76 75 74 74 75 75 76 76 75 74 73 73 74 75 77 77 77 76 76 75 75 74 73 71 71 72 72 73 75 76 74 72 73 74 74 74 74 74 73 74 75
57 49 61 62 62 63 63 64 67 71 71 69 70 69 69 69 72 73 73 74 74 76 77 76 76 77 79 77 77 76 76 76 75 75 73 73 73 73 73 73 74 75 75 75 73 73 70 71 73 73 74 74 74 72 72 73 73 74 73 73 72 74 73
56 55 58 62 65 65 65 64 62 63 66 68 69 70 71 71 71 72 71 74 74 76 74 74 73 73 75 75 73 73 73 73 73 72 72 72 72 72 73 73 74 75 75 75 73 73 72 72 73 74 73 73 73 73 74 74 74 73 72 73 73 74 74
56 59 59 60 64 65 65 66 65 63 63 65 65 68 70 72 71 71 71 72 72 72 72 73 73 72 72 74 75 76 73 72 72 71 71 71 70 72 73 73 74 74 75 74 73 72 72 72 72 72 71 71 73 73 76 77 74 73 73 72 72 74 75
55 55 56 59 55 55 61 63 63 63 64 66 67 67 67 69 68 70 70 70 71 72 71 72 72 70 70 71 72 73 72 71 71 71 71 71 71 71 71 73 73 72 72 72 72 71 71 71 71 71 71 72 74 77 77 75 74 72 71 72 72 73 74
54 58 61 59 58 56 56 58 60 63 66 66 65 64 65 67 68 70 70 69 68 68 69 70 70 68 69 70 72 72 71 69 70 70 71 71 71 72 72 73 72 72 71 71 72 71 72 71 72 72 72 74 73 74 74 74 74 73 72 72 72 74 75
57 61 62 62 59 55 57 60 62 62 64 64 63 65 65 64 66 67 68 68 66 65 67 68 69 69 69 70 72 70 70 71 70 70 71 72 71 72 72 72 71 71 71 71 71 72 72 72 71 72 73 73 72 74 74 74 75 73 73 73 72 72 70
54 60 63 63 62 62 63 63 64 64 66 67 66 65 66 67 68 68 66 67 69 70 68 68 69 70 71 71 71 69 70 71 71 70 70 71 72 72 73 73 71 71 71 72 72 72 73 72 71 72 72 72 72 75 73 73 74 73 72 71 69 67 66
MSLP
1005.48 1004.92 1005.04 1005.76 1004.92 1010.84 1008.60 1009.12 1010.20 1008.40 1006.08 1007.52 1012.40 1013.76 1013.88 1013.28 1013.60 1013.80 1012.56 1012.44 1010.28 1008.20 1006.92 1005.08 1004.60 1005.16 1004.68 1004.36 1004.52 1004.56 1004.60 1004.88 1005.28 1005.60 1005.36 1005.40 1005.64 1005.84 1006.04 1006.28 1006.44 1006.64 1006.84 1007.08 1007.32 1007.60 1007.92 1008.20 1008.56 1008.88 1009.00 1009.08 1009.28 1009.64 1010.12 1010.52 1010.76 1010.92 1011.20 1011.44 1011.76 1012.04 1012.32
1005.20 1003.80 1003.84 1004.32 1004.60 1004.48 1008.00 1009.96 1007.68 1007.44 1006.84 1006.88 1009.48 1012.84 1014.88 1013.84 1014.76 1013.64 1013.28 1012.68 1011.24 1011.04 1011.44 1005.64 1006.16 1006.08 1004.84 1004.28 1004.28 1004.04 1004.40 1004.84 1005.40 1004.84 1004.76 1004.84 1005.00 1005.04 1004.96 1005.08 1005.24 1005.48 1005.76 1006.16 1006.44 1006.68 1006.96 1007.36 1007.72 1008.08 1008.32 1008.36 1008.68 1009.08 1009.44 1010.08 1010.52 1010.88 1010.84 1011.04 1011.36 1011.56 1011.92
1004.20 1004.44 1005.04 1005.48 1004.20 1004.04 1005.48 1006.28 1004.16 1007.80 1012.08 1012.16 1011.44 1011.12 1015.84 1015.52 1015.72 1013.80 1013.52 1012.00 1010.68 1009.88 1009.24 1006.36 1005.60 1005.12 1004.44 1003.72 1003.60 1004.16 1004.88 1004.88 1004.60 1004.28 1004.32 1004.32 1004.32 1004.56 1004.84 1005.00 1005.32 1005.48 1005.68 1005.84 1005.96 1006.12 1006.28 1006.68 1006.96 1007.20 1007.48 1007.96 1008.48 1008.88 1009.08 1009.40 1009.84 1009.88 1010.12 1010.48 1010.88 1011.16 1011.40
1004.80 1005.04 1005.48 1008.36 1006.40 1005.32 1005.40 1004.92 1005.80 1005.28 1006.52 1008.72 1011.56 1009.92 1010.12 1011.00 1013.28 1014.40 1013.00 1013.72 1012.24 1009.00 1007.52 1005.96 1005.36 1004.20 1003.56 1003.24 1003.00 1003.60 1003.44 1003.84 1003.84 1003.76 1003.68 1003.88 1004.08 1004.08 1004.08 1004.28 1004.40 1004.56 1004.76 1004.92 1005.24 1005.64 1006.00 1006.28 1006.76 1007.00 1007.32 1007.64 1008.12 1008.32 1008.72 1009.00 1009.16 1009.52 1009.96 1010.32 1010.56 1010.96 1011.08
1005.60 1007.60 1005.84 1005.96 1005.32 1007.08 1007.40 1006.92 1007.32 1007.48 1006.96 1006.12 1006.32 1008.00 1008.96 1010.48 1011.92 1012.60 1012.32 1013.88 1010.60 1007.52 1005.40 1005.08 1004.40 1003.44 1002.96 1002.64 1002.64 1002.12 1002.32 1002.44 1002.56 1002.68 1002.76 1003.00 1003.12 1003.32 1003.40 1003.52 1003.76 1004.00 1004.16 1004.36 1004.60 1004.84 1005.12 1005.40 1005.76 1006.24 1006.80 1007.32 1007.48 1007.72 1008.16 1008.40 1009.00 1009.28 1009.60 1009.84 1010.16 1010.48 1010.72
1007.24 1005.16 1003.96 1003.76 1003.72 1003.84 1005.28 1006.00 1007.12 1006.24 1008.00 1009.48 1010.80 1011.24 1008.96 1009.52 1009.76 1012.52 1012.32 1011.76 1008.20 1004.84 1003.32 1003.96 1003.28 1002.40 1002.04 1001.60 1001.80 1001.72 1001.16 1001.16 1001.76 1002.12 1002.12 1002.28 1002.80 1002.72 1002.76 1002.84 1002.96 1003.24 1003.56 1003.80 1004.08 1004.48 1004.92 1005.44 1005.84 1006.28 1006.52 1006.92 1007.24 1007.52 1007.60 1007.92 1008.32 1008.76 1009.04 1009.48 1009.72 1009.96 1010.28
1005.48 1004.08 1003.12 1002.92 1002.56 1002.56 1003.24 1003.96 1005.40 1004.48 1004.96 1005.80 1008.32 1011.12 1010.36 1009.88 1009.20 1009.04 1009.32 1010.32 1008.12 1002.68 1002.24 1002.80 1002.40 1001.60 1001.28 1000.96 1001.44 1002.00 1001.44 1001.08 1001.32 1001.76 1001.76 1001.96 1002.16 1002.40 1002.44 1002.48 1002.52 1002.72 1003.04 1003.36 1003.84 1004.36 1004.76 1005.12 1005.48 1005.84 1006.12 1006.32 1006.56 1006.84 1007.12 1007.40 1007.84 1008.08 1008.08 1008.40 1008.88 1009.44 1010.00
1003.72 1003.28 1003.48 1003.64 1003.64 1003.28 1004.04 1003.56 1003.04 1004.28 1005.32 1004.64 1005.64 1006.48 1007.40 1008.40 1009.36 1010.32 1010.52 1011.32 1007.64 1002.52 1002.68 1002.72 1002.40 1001.96 1002.00 1002.24 1002.32 1002.04 1001.56 1001.16 1001.36 1001.88 1001.84 1002.00 1002.32 1002.20 1002.08 1002.12 1002.36 1002.72 1003.08 1003.48 1004.00 1004.52 1004.84 1005.08 1005.36 1005.52 1005.64 1005.92 1006.20 1006.48 1006.76 1007.04 1007.40 1007.48 1007.76 1008.04 1008.52 1009.12 1009.76
1007.08 1005.68 1004.64 1004.72 1004.28 1004.16 1004.36 1004.48 1003.48 1003.04 1003.36 1003.68 1004.24 1005.32 1007.68 1007.76 1007.64 1007.56 1009.56 1011.36 1008.36 1003.20 1002.68 1003.48 1003.56 1003.32 1003.08 1002.44 1001.84 1002.32 1002.32 1001.40 1001.52 1001.76 1001.88 1001.88 1002.04 1002.24 1002.36 1002.40 1002.52 1002.68 1003.04 1003.48 1003.76 1004.00 1004.32 1004.60 1004.92 1005.24 1005.56 1005.76 1006.00 1006.28 1006.40 1006.68 1006.84 1006.96 1007.32 1007.60 1008.20 1008.84 1009.60
1010.48 1010.56 1009.72 1007.96 1007.04 1005.72 1004.36 1004.20 1004.16 1004.12 1003.64 1004.64 1006.52 1007.84 1008.56 1009.32 1007.56 1006.92 1007.92 1007.68 1005.00 1002.68 1002.92 1003.12 1003.28 1003.16 1002.84 1002.20 1001.84 1001.64 1001.84 1001.80 1001.72 1001.68 1001.76 1001.92 1002.00 1002.08 1002.12 1002.32 1002.56 1002.72 1002.72 1003.00 1003.56 1003.88 1004.12 1004.40 1004.68 1005.00 1005.28 1005.52 1005.76 1005.96 1006.04 1006.04 1006.44 1006.80 1007.04 1007.28 1007.80 1008.68 1009.76
1006.16 1005.40 1004.44 1003.20 1002.84 1004.68 1005.84 1004.84 1004.40 1004.56 1003.84 1003.56 1004.08 1005.44 1007.36 1008.24 1008.12 1007.96 1006.28 1005.64 1005.36 1004.36 1002.92 1002.72 1002.68 1002.88 1002.36 1001.44 1000.92 1001.28 1001.12 1001.12 1001.52 1001.60 1001.64 1001.68 1001.80 1001.88 1002.04 1002.20 1002.28 1002.60 1003.08 1003.20 1003.20 1003.56 1003.84 1004.12 1004.40 1004.64 1005.00 1005.28 1005.44 1005.68 1005.84 1005.92 1006.12 1006.48 1006.84 1007.36 1007.96 1008.96 1009.88
1003.00 1002.40 1002.96 1002.80 1002.56 1003.72 1003.60 1004.04 1004.12 1003.44 1003.96 1003.92 1004.48 1005.96 1006.36 1004.68 1007.56 1008.52 1005.28 1005.24 1005.40 1004.36 1002.68 1001.84 1001.72 1001.96 1002.04 1001.32 1000.72 1000.48 1000.56 1000.36 1000.84 1001.44 1001.72 1001.72 1001.76 1001.80 1001.88 1002.16 1002.44 1002.56 1002.64 1002.96 1003.28 1003.48 1003.76 1004.00 1004.16 1004.44 1004.60 1004.80 1005.12 1005.36 1005.68 1005.84 1006.04 1006.36 1006.80 1007.36 1008.12 1008.80 1009.28
1002.28 1001.48 1001.68 1002.04 1002.88 1001.96 1002.12 1002.44 1002.72 1003.40 1003.16 1003.88 1004.68 1004.72 1003.92 1004.48 1005.92 1006.44 1004.68 1005.24 1005.40 1003.56 1002.00 1001.12 1000.60 1000.32 1000.72 1000.20 999.52 999.44 999.88 1000.52 1001.08 1001.52 1001.72 1001.60 1001.56 1001.76 1001.92 1001.88 1001.92 1002.24 1002.60 1002.76 1003.04 1003.28 1003.44 1003.68 1004.04 1004.24 1004.48 1004.72 1004.88 1005.12 1005.28 1005.56 1005.72 1006.08 1006.40 1007.08 1007.76 1008.16 1008.60
1002.36 1001.88 1001.68 1001.92 1003.04 1002.76 1002.16 1001.88 1001.72 1001.72 1002.32 1002.96 1003.00 1003.20 1003.04 1003.80 1003.96 1003.12 1002.84 1003.80 1003.68 1002.16 1001.24 1000.28 999.72 999.28 999.44 999.00 999.16 999.92 1000.16 1000.00 1000.56 1001.16 1001.32 1001.04 1001.00 1001.16 1001.28 1001.32 1001.44 1001.64 1001.92 1002.32 1002.64 1002.88 1003.20 1003.44 1003.72 1004.00 1004.24 1004.48 1004.60 1004.88 1005.16 1005.32 1005.64 1005.84 1006.16 1006.68 1007.20 1007.76 1008.44
1002.96 1001.80 1001.56 1001.96 1002.52 1002.68 1003.08 1001.88 1001.36 1001.12 1001.20 1001.72 1001.76 1001.80 1001.96 1002.68 1002.92 1002.76 1003.36 1004.12 1004.32 1001.28 999.68 999.48 999.04 999.92 1000.28 1000.44 1000.32 999.92 999.68 999.96 1000.48 1000.68 1000.64 1000.52 1000.44 1000.40 1000.64 1000.92 1001.16 1001.32 1001.64 1002.00 1002.36 1002.72 1002.92 1003.12 1003.28 1003.48 1003.68 1003.88 1004.24 1004.52 1004.80 1005.04 1005.40 1005.44 1005.68 1006.44 1007.04 1007.52 1008.08
1003.60 1001.92 1002.16 1001.96 1002.24 1002.48 1002.64 1002.24 1001.76 1002.16 1002.76 1003.40 1002.92 1003.28 1002.40 1003.60 1004.24 1003.40 1003.88 1004.80 1003.92 1000.72 999.64 999.92 999.92 1000.36 1000.80 1000.28 999.68 999.64 999.68 999.60 999.88 1000.12 999.88 999.96 1000.00 1000.08 1000.40 1000.72 1001.04 1001.36 1001.52 1001.84 1002.04 1002.24 1002.32 1002.48 1002.76 1003.08 1003.44 1003.72 1004.08 1004.40 1004.44 1004.80 1004.96 1005.20 1005.76 1006.40 1006.88 1007.40 1007.84
1003.84 1002.00 1001.92 1002.04 1002.12 1003.64 1004.72 1003.56 1001.76 1001.16 1001.60 1001.32 1001.24 1001.08 1001.12 1001.08 1001.04 1003.00 1004.08 1003.16 1000.56 999.24 998.72 1000.24 1000.20 1000.08 999.92 1000.04 999.64 999.44 999.36 999.60 999.44 999.44 999.28 999.20 999.28 999.48 999.96 1000.52 1000.84 1000.84 1000.84 1000.92 1001.16 1001.36 1001.60 1002.00 1002.32 1002.40 1002.76 1003.44 1003.84 1004.12 1004.52 1004.56 1004.76 1005.32 1005.84 1006.32 1006.96 1007.60 1008.00
1003.52 1002.80 1002.92 1002.72 1004.20 1006.72 1004.96 999.84 998.76 999.64 1000.76 1001.12 1001.88 1001.76 1001.36 1000.80 1000.36 1000.40 999.56 999.36 998.64 998.84 999.68 1000.16 999.76 999.72 999.32 998.48 997.68 997.48 997.88 998.44 998.96 998.60 998.56 998.60 998.84 999.24 999.60 999.88 1000.08 1000.16 1000.24 1000.44 1000.64 1000.84 1001.12 1001.32 1001.64 1002.08 1002.48 1003.12 1003.52 1003.68 1004.00 1004.36 1004.84 1005.28 1005.76 1006.32 1006.84 1007.36 1007.76
1003.80 1003.48 1003.64 1004.68 1006.40 1004.68 999.76 999.12 999.20 998.28 998.24 998.80 999.68 999.40 999.08 999.08 999.36 999.28 999.92 999.56 999.24 998.72 998.52 998.40 998.04 997.96 997.96 998.28 998.44 998.28 998.08 998.40 998.52 998.80 998.60 998.72 998.80 999.04 999.36 999.84 999.92 1000.20 1000.32 1000.56 1000.84 1001.24 1001.44 1001.56 1001.84 1002.20 1002.76 1002.92 1003.24 1003.64 1003.88 1004.40 1004.72 1005.20 1005.64 1006.16 1006.64 1007.00 1007.36
1003.32 1004.04 1003.80 1007.08 1004.68 1001.32 1000.52 999.96 999.68 999.64 998.80 998.64 999.28 1000.04 999.44 999.52 999.16 999.32 999.52 998.56 997.92 998.16 998.88 998.80 998.72 998.96 998.76 998.72 998.72 998.68 998.28 997.92 998.12 998.40 998.52 998.68 998.80 999.00 998.68 999.00 999.40 999.80 1000.16 1000.44 1000.72 1001.16 1001.20 1001.56 1001.84 1002.04 1002.48 1002.56 1002.96 1003.48 1003.64 1004.12 1004.56 1004.96 1005.48 1005.96 1006.36 1006.72 1007.08
1004.84 1004.28 1004.28 1003.84 1001.64 1001.28 1000.76 1000.76 1000.32 1000.12 1000.64 1000.20 1000.16 1001.72 999.68 998.12 999.00 999.16 999.00 998.28 998.12 998.68 999.16 999.20 999.08 998.84 998.56 998.88 998.68 998.28 998.28 998.32 997.52 997.32 997.52 997.60 998.08 998.60 998.96 998.84 999.28 999.52 999.76 1000.20 1000.44 1000.76 1001.00 1001.16 1001.52 1001.84 1002.00 1002.32 1002.76 1003.24 1003.68 1004.00 1004.36 1004.88 1005.32 1005.84 1006.08 1006.36 1006.72
1004.28 1004.64 1004.84 1004.04 1003.60 1004.80 1001.32 1000.60 1000.08 999.60 1000.12 1000.00 1000.00 1000.08 999.24 999.12 998.64 998.60 998.84 998.76 998.56 998.76 998.84 999.08 998.92 998.60 999.24 1000.08 998.84 998.28 998.16 998.00 998.00 997.56 997.32 997.44 997.68 998.08 998.72 998.96 999.16 999.40 999.60 999.72 999.96 1000.28 1000.76 1001.08 1001.28 1001.52 1001.84 1002.32 1002.84 1003.36 1003.68 1003.96 1004.32 1004.80 1005.20 1005.48 1005.64 1005.92 1006.20
1004.24 1004.52 1005.60 1005.32 1005.76 1002.76 1001.12 1001.32 1000.80 1000.24 1000.16 1000.36 999.76 1000.44 1000.20 997.80 997.88 998.32 998.56 998.68 998.56 998.36 998.44 998.92 998.60 998.96 1000.12 999.32 998.36 998.28 998.16 997.76 997.44 997.80 997.56 997.28 997.48 997.80 998.20 998.52 999.04 999.24 999.52 999.72 1000.08 1000.32 1000.56 1001.20 1001.40 1001.52 1001.84 1002.28 1002.84 1003.44 1003.64 1003.80 1004.08 1004.64 1004.92 1005.08 1005.28 1005.56 1005.84
1004.20 1004.84 1005.36 1005.12 1003.24 1002.32 1002.24 1001.76 1001.24 1000.80 1000.32 1000.40 1000.60 1002.76 1000.44 997.12 997.60 997.68 998.12 998.04 998.04 998.20 997.84 997.96 998.16 998.20 999.12 998.68 998.60 997.96 997.80 997.56 997.60 997.80 997.96 997.88 997.88 998.16 998.24 998.32 998.56 998.88 999.32 1000.08 1000.44 1000.32 1000.56 1001.12 1001.28 1001.52 1001.84 1002.20 1002.72 1003.12 1003.44 1003.56 1004.04 1004.32 1004.40 1004.48 1004.72 1005.12 1005.48
1005.20 1005.32 1004.04 1003.56 1002.16 1001.40 1002.04 1002.04 1001.44 1000.72 1000.36 1000.80 1002.24 1002.20 998.16 997.76 997.56 997.56 997.64 997.36 997.44 997.64 997.92 997.36 998.12 998.16 997.84 997.60 997.96 998.00 998.00 998.04 998.12 997.76 997.36 997.44 997.52 997.96 998.20 998.72 998.96 999.32 999.52 999.60 999.80 1000.12 1000.72 1001.20 1001.48 1001.64 1001.88 1002.36 1002.92 1003.16 1003.40 1003.72 1003.92 1003.84 1003.88 1004.16 1004.64 1005.00 1005.32
1004.60 1004.40 1004.68 1003.88 1002.24 1002.28 1002.24 1001.20 1001.36 1000.40 1001.16 1002.48 1000.48 999.16 999.56 998.76 997.92 997.60 996.96 997.16 997.48 997.52 997.76 997.76 998.28 998.64 998.00 997.76 997.84 998.28 998.56 998.64 998.48 998.32 998.28 998.20 998.32 998.36 998.60 999.00 999.00 999.12 999.40 999.84 1000.24 1000.84 1001.40 1001.72 1001.80 1001.88 1002.04 1002.60 1002.92 1003.24 1003.56 1003.76 1003.68 1003.64 1003.88 1004.20 1004.60 1005.00 1005.40
1005.80 1005.40 1004.12 1004.52 1005.36 1002.24 1001.28 1002.08 1000.76 1001.04 1002.28 1000.92 1001.12 999.72 998.48 998.36 997.92 997.36 997.12 996.96 997.56 997.52 998.40 998.24 998.44 998.56 998.68 998.72 998.80 998.88 999.12 999.32 999.48 999.28 999.00 998.84 998.84 999.04 999.08 999.12 998.88 998.92 999.80 1000.56 1001.28 1001.76 1001.96 1002.00 1002.00 1002.04 1002.20 1002.80 1003.16 1003.40 1003.76 1003.76 1003.60 1003.72 1004.00 1004.28 1004.64 1005.00 1005.36
1005.40 1005.60 1005.76 1004.68 1002.88 1002.20 1001.68 1002.56 1003.92 1002.32 1002.32 1001.40 1000.64 999.84 999.12 998.44 997.96 998.00 997.84 997.76 997.52 997.48 997.68 998.28 998.64 998.88 999.24 999.52 999.48 999.44 999.48 999.44 999.48 999.48 999.32 999.16 999.20 999.36 999.40 999.56 999.76 999.76 1000.52 1001.12 1001.68 1002.04 1002.16 1002.24 1002.20 1002.20 1002.40 1003.00 1003.32 1003.60 1003.80 1003.60 1003.72 1003.92 1004.16 1004.40 1004.68 1005.04 1005.44
1002.88 1003.52 1002.60 1002.56 1002.80 1003.04 1002.44 1002.44 1002.56 1002.00 1001.00 1000.48 1000.16 999.80 999.28 999.08 998.88 998.16 998.16 998.16 997.56 997.28 997.36 997.88 998.16 998.84 999.04 999.40 999.40 999.60 999.72 999.32 999.20 999.48 999.64 999.56 999.60 999.72 999.92 1000.12 1000.16 1000.32 1001.00 1001.72 1002.16 1002.60 1002.68 1002.76 1002.72 1002.68 1002.64 1003.00 1003.40 1003.68 1003.72 1003.64 1003.88 1004.08 1004.36 1004.60 1004.92 1005.16 1005.36
1002.48 1002.28 1002.12 1002.00 1002.80 1003.52 1003.20 1001.92 1001.84 1001.48 1000.92 1000.56 1000.56 1000.36 1000.12 999.80 999.28 998.68 998.72 998.48 998.24 998.08 997.72 997.84 998.52 998.64 998.92 999.00 999.16 999.24 999.40 999.48 999.48 999.44 999.60 999.72 999.68 999.80 999.96 1000.24 1000.40 1000.68 1001.08 1001.52 1002.04 1002.72 1003.08 1003.12 1003.12 1003.04 1003.04 1003.12 1003.60 1003.68 1003.56 1003.60 1003.68 1004.00 1004.40 1004.84 1005.16 1005.24 1005.36
1002.64 1003.64 1002.80 1002.52 1003.08 1003.24 1003.16 1002.88 1002.08 1001.12 1000.88 1001.32 1001.40 1001.32 1000.64 1000.20 999.40 998.96 998.80 998.76 998.72 998.48 998.12 998.16 998.48 998.76 998.60 998.76 998.92 998.96 999.16 999.40 999.48 999.48 999.84 1000.20 1000.44 1000.56 1000.80 1000.96 1000.96 1001.04 1001.08 1001.40 1001.88 1002.28 1002.76 1003.08 1003.20 1003.20 1003.08 1003.08 1003.20 1003.32 1003.44 1003.52 1003.68 1004.00 1004.44 1004.84 1005.12 1005.24 1005.48
1002.72 1002.88 1002.60 1002.20 1002.48 1002.84 1002.56 1002.72 1003.12 1002.68 1001.96 1001.80 1002.00 1001.72 1001.04 1000.36 999.84 999.60 999.60 999.08 999.20 998.92 999.28 999.40 999.48 999.72 999.44 999.52 999.76 999.76 999.92 999.96 999.96 1000.12 1000.20 1000.28 1000.36 1000.64 1000.76 1001.00 1001.12 1001.04 1001.04 1001.36 1001.80 1002.12 1002.60 1002.92 1002.96 1003.04 1003.00 1003.00 1003.00 1003.04 1003.12 1003.32 1003.64 1004.08 1004.52 1004.80 1005.00 1005.16 1005.40
1003.72 1003.16 1002.88 1002.52 1002.60 1002.80 1002.40 1002.16 1002.80 1003.00 1002.72 1002.60 1003.00 1002.56 1001.56 1000.56 1000.12 1000.08 999.88 999.76 999.96 999.96 1000.32 1000.08 1000.12 1000.36 1000.48 1000.16 999.88 999.88 1000.24 1000.36 1000.52 1000.76 1000.88 1000.88 1000.96 1001.00 1001.12 1001.36 1001.36 1001.56 1001.72 1001.96 1002.36 1002.72 1003.08 1003.12 1003.20 1003.28 1003.28 1003.28 1003.20 1003.20 1002.96 1002.92 1003.48 1004.04 1004.44 1004.72 1004.92 1005.12 1005.36
1003.68 1003.68 1003.72 1002.76 1003.04 1004.08 1003.08 1002.72 1003.48 1003.36 1002.92 1002.92 1003.20 1003.04 1002.40 1001.56 1001.08 1000.56 1000.40 1000.48 1000.32 1000.44 1000.64 1000.72 1000.80 1001.16 1001.36 1001.08 1000.68 1000.76 1000.96 1001.12 1001.12 1001.12 1001.24 1001.32 1001.36 1001.60 1001.72 1001.76 1001.92 1002.12 1002.32 1002.52 1002.88 1003.16 1003.36 1003.32 1003.32 1003.40 1003.44 1003.40 1003.32 1003.04 1003.00 1003.20 1003.60 1004.08 1004.40 1004.68 1004.96 1005.28 1005.44
1003.96 1003.56 1003.00 1003.24 1003.00 1003.36 1004.12 1003.60 1003.44 1003.36 1003.20 1003.36 1003.64 1003.56 1003.12 1002.32 1001.72 1001.20 1000.88 1000.96 1001.12 1001.32 1001.40 1001.16 1001.32 1001.80 1001.92 1001.76 1001.32 1001.36 1001.60 1001.80 1001.76 1001.76 1001.80 1001.88 1001.96 1002.12 1002.16 1002.28 1002.48 1002.64 1002.84 1002.92 1003.04 1003.24 1003.28 1003.28 1003.28 1003.24 1003.24 1003.24 1003.36 1003.36 1003.44 1003.56 1003.76 1004.04 1004.28 1004.72 1005.04 1005.24 1005.44
1004.32 1003.56 1003.12 1002.96 1003.28 1004.20 1004.44 1003.84 1003.60 1004.08 1004.08 1004.00 1003.92 1003.68 1003.16 1003.04 1002.84 1002.28 1001.80 1001.48 1001.60 1001.80 1001.64 1001.64 1001.76 1002.16 1002.28 1002.12 1001.80 1002.04 1002.04 1002.04 1002.16 1002.28 1002.28 1002.28 1002.40 1002.48 1002.56 1002.68 1002.88 1003.04 1003.20 1003.24 1003.24 1003.28 1003.24 1003.24 1003.28 1003.24 1003.28 1003.36 1003.48 1003.40 1003.48 1003.60 1003.76 1004.08 1004.32 1004.68 1005.00 1005.28 1005.64
1004.68 1003.96 1003.36 1003.20 1003.40 1003.68 1003.80 1003.84 1003.96 1004.08 1003.96 1003.76 1003.72 1003.64 1003.48 1003.28 1002.80 1002.48 1002.44 1002.12 1001.60 1001.44 1001.88 1002.24 1002.32 1002.28 1002.36 1002.32 1002.24 1002.40 1002.52 1002.56 1002.52 1002.56 1002.56 1002.56 1002.64 1002.72 1002.72 1002.84 1003.08 1003.12 1003.16 1003.08 1003.08 1003.04 1003.08 1003.28 1003.40 1003.32 1003.32 1003.40 1003.40 1003.36 1003.56 1003.72 1003.84 1004.20 1004.52 1004.88 1005.40 1005.84 1006.20
Wind_Speed
9 11 8 7 10 12 7 5 13 7 5 10 5 4 4 3 1 7 5 4 5 4 11 16 12 8 14 7 7 10 14 12 12 13 15 17 16 16 16 16 16 17 16 16 16 16 15 16 15 16 16 17 18 17 16 16 16 14 15 15 14 13 13
9 6 11 11 12 2 7 11 8 6 4 3 5 8 3 6 9 4 5 8 6 4 5 3 2 8 13 12 11 13 9 10 14 15 14 15 17 19 19 19 17 18 19 20 19 17 19 18 18 18 18 17 16 15 16 17 15 16 15 14 14 14 14
10 5 4 9 10 3 8 6 13 12 6 10 1 2 7 7 8 6 5 9 9 8 7 1 6 6 8 9 10 9 9 13 16 14 14 14 17 17 16 18 15 16 16 17 18 19 20 18 17 17 17 16 13 14 15 16 18 18 17 13 12 11 12
4 7 10 16 14 4 4 4 12 3 4 7 8 7 1 5 9 5 7 6 8 8 6 7 12 10 10 9 9 9 14 14 13 13 15 16 17 17 17 18 18 19 19 21 21 20 20 19 17 16 17 16 18 18 16 16 16 14 14 13 13 13 13
4 10 9 16 15 13 8 8 9 5 3 3 1 2 7 8 8 7 8 8 4 4 7 11 12 12 11 11 13 10 8 12 15 15 15 14 16 16 17 17 17 19 20 20 20 20 19 18 17 17 17 18 18 17 18 18 17 17 16 15 14 13 12
10 9 8 11 15 15 12 12 11 11 8 8 11 10 3 2 7 3 7 13 3 5 5 10 12 12 13 12 13 11 12 9 10 10 14 13 13 16 17 17 18 19 19 19 19 17 15 15 16 17 16 16 18 17 17 17 18 16 18 15 14 14 12
12 12 6 7 9 12 15 15 12 14 12 9 10 12 6 2 3 3 2 5 6 5 8 11 12 12 15 12 5 9 10 11 4 7 11 11 12 15 17 17 17 17 17 17 17 17 18 17 16 18 17 18 18 19 18 17 17 19 19 17 14 12 12
2 1 3 1 1 9 14 16 15 13 17 16 13 10 5 8 6 5 4 7 5 4 1 5 9 8 6 4 5 10 10 7 3 6 9 11 12 13 14 13 13 12 12 12 11 13 13 13 14 17 16 16 16 16 16 16 18 19 18 15 14 13 12
6 10 7 6 1 4 9 9 12 15 15 16 6 5 3 10 11 12 7 12 6 5 1 2 4 9 11 12 10 7 9 7 5 6 8 9 11 11 13 13 12 11 12 14 13 13 14 14 15 14 15 15 15 15 16 17 17 18 16 14 13 13 13
13 12 15 16 12 10 4 2 4 9 17 11 6 10 4 10 5 12 11 10 4 2 0 3 6 5 10 12 12 7 8 10 6 7 8 8 10 11 12 11 11 15 14 12 11 12 12 13 13 12 12 13 14 14 16 16 15 15 15 13 13 12 11
14 10 6 2 4 5 11 8 11 9 13 13 13 3 9 12 6 9 8 8 6 7 8 8 8 7 11 14 10 9 11 10 7 6 6 8 9 10 13 12 10 7 9 14 15 13 12 13 13 12 14 15 15 14 15 16 14 13 13 11 11 11 13
15 14 13 10 14 14 14 15 14 14 14 15 16 12 12 7 6 11 7 7 11 9 9 11 11 10 9 10 10 8 8 9 8 7 6 7 8 9 9 10 13 15 14 12 13 14 13 12 12 12 13 13 14 13 14 13 13 12 10 10 11 13 15
17 18 18 12 11 16 15 17 16 17 17 16 18 15 11 12 12 13 8 10 11 10 12 11 13 12 13 13 15 14 4 1 4 8 11 12 12 11 13 14 13 13 14 13 14 14 13 13 14 14 12 12 11 10 12 12 13 13 11 12 13 15 15
15 16 16 10 13 10 12 16 18 18 19 19 20 18 15 15 11 12 11 15 16 14 13 12 13 13 11 8 3 1 6 11 9 11 11 13 13 15 16 15 15 14 14 13 14 14 13 14 14 14 12 12 13 13 14 13 12 11 11 13 14 14 13
12 15 14 11 14 15 16 14 14 16 17 18 20 19 16 13 13 6 1 7 9 8 6 7 3 3 1 1 7 11 10 8 10 12 12 12 14 14 12 12 13 13 13 13 13 13 14 14 15 14 13 12 12 13 13 13 13 13 13 13 13 13 14
7 7 10 13 14 16 18 20 17 11 10 12 8 8 5 8 9 10 8 5 6 7 9 10 8 6 6 9 10 9 8 11 11 12 13 13 14 13 12 11 11 12 13 14 14 15 16 15 14 13 11 11 11 13 12 12 12 11 12 12 12 13 13
4 1 3 8 11 8 11 15 16 16 13 10 11 11 10 14 14 11 10 10 8 13 9 9 10 11 11 10 9 8 8 6 10 12 13 13 13 12 12 13 13 14 16 16 16 15 14 13 13 14 12 11 12 11 10 10 10 11 12 12 11 12 15
3 3 3 5 4 10 10 9 17 18 18 17 15 12 12 13 11 8 10 10 12 10 5 10 12 12 12 14 14 9 6 9 12 13 11 10 10 9 11 13 15 14 11 9 11 12 11 12 11 10 11 9 8 9 10 10 11 11 12 11 12 14 15
4 2 2 3 8 9 2 3 1 12 19 19 20 18 19 17 15 10 5 7 7 10 12 12 11 9 4 4 5 6 7 5 7 8 7 8 11 13 13 12 11 8 8 8 8 7 7 9 9 9 8 8 8 9 10 12 12 12 11 13 13 14 17
1 2 2 3 2 4 7 5 2 2 2 5 10 14 7 5 12 14 14 12 12 7 6 6 2 2 2 0 2 2 3 7 7 7 8 8 8 11 12 14 12 12 12 11 11 9 8 8 8 9 10 10 11 11 11 12 12 12 12 13 13 13 16
4 1 3 7 6 8 3 3 1 1 2 8 13 11 13 14 11 12 13 14 9 4 6 5 3 4 4 5 2 2 1 3 6 8 9 11 10 4 3 7 9 9 9 9 10 10 10 10 10 10 10 11 11 11 12 12 12 12 13 13 13 15 15
1 5 7 5 5 7 4 4 3 4 7 9 9 5 5 4 8 9 10 12 9 7 5 6 7 8 6 6 5 2 1 3 4 3 6 7 8 9 9 8 10 11 10 10 10 10 11 9 9 9 10 11 11 11 11 11 13 13 13 14 14 14 15
3 4 6 5 6 5 5 6 8 8 10 10 8 3 10 6 10 9 11 10 8 9 9 9 10 8 7 8 3 2 3 4 6 7 7 10 11 12 12 13 12 11 9 9 10 9 10 10 8 9 10 12 11 11 11 12 12 13 13 13 13 14 14
2 1 3 7 3 3 6 10 12 13 11 7 4 9 7 8 8 8 10 10 9 9 8 10 10 10 10 5 4 3 4 5 6 8 10 10 10 9 8 8 8 10 11 11 9 9 9 9 9 10 11 11 11 11 11 11 12 12 13 13 12 11 12
2 4 3 3 5 2 9 13 17 15 7 4 7 10 2 4 2 4 7 7 7 7 9 10 8 0 4 7 8 7 6 9 8 7 9 10 11 12 11 10 10 9 8 7 9 9 8 8 8 9 9 9 9 8 9 9 12 12 9 9 10 10 12
6 2 5 5 5 2 6 13 15 9 2 7 9 3 4 6 4 1 5 7 6 6 4 4 7 6 7 10 9 9 6 7 9 10 11 12 12 11 11 10 9 9 10 11 11 10 7 6 6 7 8 8 8 8 8 10 9 6 7 8 9 10 14
1 2 4 3 4 3 11 16 5 7 5 5 5 7 6 6 4 4 7 9 8 9 12 12 12 12 11 11 12 12 11 10 9 7 8 11 11 10 10 10 8 10 11 10 10 9 6 6 5 6 7 8 7 7 7 6 4 5 6 7 8 10 12
4 1 1 1 4 6 9 9 3 7 6 10 10 8 5 7 5 6 9 9 10 13 15 17 15 15 15 11 10 12 11 11 10 10 11 12 12 12 11 10 9 11 12 10 9 8 6 5 5 5 7 7 6 7 6 4 5 6 7 8 9 11 12
6 4 3 1 3 7 8 5 6 7 10 7 8 7 5 6 7 6 7 9 9 12 16 16 16 15 13 13 11 13 9 11 12 11 10 10 11 11 11 11 10 10 10 10 9 9 6 6 4 3 2 5 7 7 5 5 6 6 7 8 9 11 12
2 3 2 5 3 3 9 7 6 8 10 11 10 8 6 8 6 7 8 8 9 8 6 14 11 12 12 13 12 12 10 11 11 11 11 10 11 11 11 10 9 9 9 10 10 10 8 6 5 3 3 3 6 6 6 6 6 6 7 8 9 11 11
7 4 6 8 5 2 6 8 10 8 10 10 10 9 8 7 9 10 11 9 10 9 10 12 12 12 11 13 11 10 10 11 11 12 12 10 9 9 10 7 6 7 8 7 8 8 8 5 4 4 5 4 4 5 6 6 6 7 7 8 8 9 10
3 1 10 8 7 5 5 5 7 9 11 11 10 8 7 8 11 12 12 12 13 12 12 11 12 11 10 11 10 10 9 9 10 10 10 10 10 9 8 7 5 6 8 7 7 7 6 4 4 4 4 4 6 7 7 7 7 7 7 8 8 9 10
2 5 2 7 7 5 7 8 9 8 7 7 8 9 8 10 13 14 15 15 13 13 12 12 12 13 12 11 11 12 9 10 10 10 10 10 9 9 10 9 8 7 6 7 6 6 4 3 3 3 4 4 5 7 7 8 8 8 8 8 7 8 9
5 6 5 3 9 5 4 9 8 9 8 6 5 7 8 11 11 11 15 15 15 15 14 12 12 13 10 12 11 13 11 10 10 9 9 8 9 8 7 6 6 6 6 4 4 4 3 3 4 4 5 5 4 5 5 7 8 8 8 7 7 7 7
1 5 4 5 4 10 6 6 9 9 8 6 7 8 8 10 11 10 13 15 15 15 14 13 14 12 11 11 11 13 11 10 9 8 8 7 6 6 5 5 5 4 3 2 3 4 4 4 4 5 5 5 4 4 5 6 7 7 8 7 6 6 6
7 5 9 9 8 9 7 8 9 6 3 5 9 9 11 11 10 10 11 11 13 11 12 14 12 11 11 10 11 12 11 11 9 8 6 6 5 5 4 3 3 3 3 4 4 5 4 4 4 5 5 5 5 5 6 6 6 7 7 7 7 6 7
5 3 8 11 13 12 9 9 8 6 5 4 7 10 9 9 11 12 12 11 12 14 13 12 11 10 10 11 11 11 11 11 10 8 7 6 5 4 3 3 2 2 2 3 3 4 4 5 6 6 6 5 5 5 5 5 6 7 7 9 10 9 7
Wind_Direction
191 192 151 201 164 212 150 162 210 205 117 179 83 67 29 63 204 233 153 249 242 294 287 268 262 250 259 243 233 214 220 196 178 197 201 199 196 198 197 201 202 196 193 195 196 196 196 195 191 191 192 191 194 194 194 196 198 193 190 191 193 191 190
225 204 190 188 211 159 119 206 194 81 18 339 181 220 120 215 223 211 174 211 232 197 245 176 184 228 247 235 221 220 210 175 194 204 196 189 192 195 196 197 195 192 194 193 195 197 196 193 193 193 193 191 193 191 192 194 194 196 196 193 192 190 190
182 159 192 218 209 191 217 220 132 184 170 203 140 174 196 184 215 224 192 227 245 214 230 312 267 250 246 240 218 205 195 199 207 206 196 192 195 197 198 203 200 199 199 198 196 196 196 196 193 193 192 188 188 192 195 196 196 199 197 193 191 190 191
142 167 179 216 200 171 35 114 173 359 193 192 170 197 124 196 234 206 213 182 229 196 223 212 238 251 259 264 266 196 208 198 202 202 196 194 193 194 194 198 198 197 199 198 196 195 195 194 193 197 194 191 195 196 194 198 201 197 194 190 187 191 194
137 209 191 215 201 187 180 190 183 187 220 355 299 140 206 200 217 207 228 217 201 191 210 218 228 238 243 242 248 252 217 206 204 199 195 191 194 193 195 197 196 197 199 199 199 198 197 195 193 195 194 195 199 198 197 197 194 194 196 195 192 197 190
207 217 184 218 213 203 193 198 196 192 160 169 195 213 104 218 209 191 196 242 156 193 189 208 223 230 238 237 236 245 252 231 205 204 202 195 192 192 193 194 194 197 196 196 196 194 193 192 193 192 193 196 200 200 201 199 200 200 202 196 195 194 188
216 213 187 213 234 203 203 201 205 195 201 191 199 224 173 159 237 44 281 275 242 181 200 208 213 225 231 241 232 253 257 261 224 205 209 200 196 193 199 199 199 197 193 189 186 182 185 187 187 190 194 197 198 200 200 198 198 202 202 199 191 186 183
273 260 87 134 176 216 207 207 210 190 211 206 216 220 139 205 144 202 170 231 213 176 123 233 246 264 305 336 240 246 257 258 214 206 199 190 190 197 198 198 195 192 184 173 171 178 181 183 188 191 195 197 198 201 201 200 203 204 202 198 187 181 182
220 226 216 221 118 217 217 211 204 205 208 209 222 83 61 226 183 200 184 234 186 201 77 268 249 254 259 260 245 223 258 262 225 213 197 190 190 186 193 190 184 174 178 180 187 187 187 189 192 192 193 194 195 200 200 202 206 204 200 197 186 181 180
214 204 205 212 201 203 206 282 190 211 204 171 132 210 158 229 153 201 218 233 161 211 14 254 240 232 249 252 256 247 241 256 225 205 194 189 186 190 187 181 173 187 186 180 181 188 189 190 193 188 189 192 196 199 201 202 205 202 200 195 185 173 162
226 227 219 145 140 138 218 193 213 187 212 188 200 148 206 217 156 209 205 227 209 206 203 220 232 225 233 244 240 225 233 239 235 215 197 191 188 181 186 184 183 156 167 187 188 184 186 191 189 190 194 198 201 201 203 203 204 202 198 187 167 150 141
220 219 216 199 191 207 207 215 211 202 193 195 203 199 219 124 126 228 190 192 214 202 198 205 224 230 240 247 247 247 240 235 216 194 179 184 185 185 170 173 176 187 186 177 178 182 186 188 186 190 194 197 198 197 196 197 200 196 183 158 139 144 149
222 223 226 198 198 215 207 211 209 204 196 190 206 209 208 160 208 228 183 179 206 210 211 209 218 218 218 224 227 225 230 43 169 182 189 190 185 178 184 188 185 176 178 178 178 181 186 185 188 191 192 195 195 192 195 196 196 196 179 152 156 163 163
227 227 223 185 200 220 224 214 210 202 200 200 203 206 206 192 215 226 209 185 204 206 209 215 223 224 220 232 257 57 217 221 195 191 192 189 185 186 191 187 184 183 179 173 177 178 180 185 186 188 189 190 192 193 196 193 190 188 159 160 167 167 158
237 238 233 211 210 214 225 224 216 209 203 202 202 208 203 197 219 215 119 183 231 241 245 247 255 20 321 254 220 220 210 198 195 199 195 191 194 196 191 179 179 176 171 170 172 177 183 187 189 190 191 190 189 196 196 194 186 181 167 165 165 157 160
238 229 231 220 212 217 225 228 222 207 200 208 206 226 169 184 202 217 215 218 233 244 216 233 245 246 235 230 229 224 213 207 198 199 198 192 194 192 188 179 169 165 171 172 177 184 188 189 187 187 186 184 182 194 190 188 183 174 168 166 165 160 161
245 182 269 253 213 211 234 232 228 217 200 203 199 211 188 200 190 203 208 219 214 232 213 206 227 222 229 238 241 241 232 216 206 205 202 199 193 186 170 168 176 178 178 182 183 186 185 182 185 191 178 177 188 181 173 171 165 166 167 167 154 156 170
279 32 57 123 160 220 230 219 218 208 211 205 214 213 208 217 209 212 208 214 220 219 157 200 218 212 216 219 228 225 227 201 203 212 208 198 184 175 173 177 183 184 178 177 184 182 178 180 182 174 177 173 164 163 163 156 162 165 163 158 158 166 178
283 89 145 210 233 240 247 9 282 213 215 208 210 215 211 210 208 217 255 250 233 216 208 208 218 224 253 355 322 286 249 252 227 218 212 180 170 173 173 177 180 170 168 162 150 145 158 166 158 152 154 158 148 155 163 167 167 161 159 159 168 170 184
193 252 180 241 228 339 312 326 3 45 223 230 216 235 242 228 211 208 223 224 225 219 227 238 242 276 236 283 38 328 255 207 204 200 204 191 184 187 185 170 165 162 170 166 163 153 138 139 157 167 169 169 168 167 166 168 167 164 162 167 173 173 182
289 307 265 278 314 285 197 216 157 68 189 177 184 206 222 197 195 195 214 230 229 209 231 223 184 158 171 221 220 65 235 233 215 200 185 177 175 141 96 144 133 128 129 131 141 145 161 167 162 167 162 162 163 161 167 170 165 165 167 174 177 182 182
327 310 308 298 274 276 216 92 45 26 351 319 320 302 229 153 185 197 208 228 221 207 191 175 162 156 172 225 219 106 130 180 169 144 136 128 121 122 126 121 132 144 154 154 152 158 155 155 149 147 151 156 156 162 169 166 168 169 175 181 182 182 187
258 259 291 282 288 285 54 32 355 344 333 323 294 228 236 171 187 190 202 213 208 201 175 160 160 165 196 218 168 91 150 166 161 143 142 139 137 142 152 154 149 147 140 140 151 148 139 131 134 139 150 155 161 166 168 172 173 175 184 185 184 187 186
230 250 251 280 263 321 19 342 338 326 320 320 233 220 218 164 182 191 191 205 196 191 170 156 175 179 198 181 130 134 158 143 138 141 136 126 122 120 120 119 130 128 128 132 143 133 123 121 135 150 153 161 165 166 169 170 175 183 189 190 185 182 181
230 215 273 260 251 102 5 346 327 321 308 264 213 213 145 47 166 182 193 193 170 171 164 169 169 287 22 91 108 117 122 120 107 100 102 106 117 124 126 122 129 128 125 120 107 102 98 119 140 153 156 156 160 160 163 172 188 193 185 175 170 172 183
279 292 281 278 293 93 326 343 327 322 222 193 217 24 312 311 341 296 188 141 137 154 129 78 71 87 87 99 105 99 86 95 105 107 110 107 98 95 106 125 129 103 92 85 84 80 88 124 140 146 147 145 148 156 167 189 190 166 156 158 165 171 191
201 224 263 316 306 68 15 345 324 45 307 3 320 309 9 0 358 85 95 116 136 125 102 92 93 92 86 88 90 87 84 78 71 76 87 88 90 95 96 83 67 93 95 91 89 100 108 117 124 130 135 135 141 156 179 180 151 148 158 165 171 184 194
251 122 194 2 28 343 3 14 358 337 315 302 308 306 71 15 38 72 92 88 102 108 107 107 101 98 97 87 92 98 99 101 96 80 72 73 76 73 69 72 71 83 88 90 93 88 90 95 112 128 139 136 148 159 168 140 140 154 162 170 176 192 191
193 195 188 146 31 333 331 8 317 311 316 328 341 351 38 66 34 9 71 82 89 102 109 107 109 103 99 103 97 90 87 90 91 85 72 72 76 73 69 67 64 64 78 85 86 80 72 75 71 80 108 140 147 151 137 145 157 160 162 167 179 195 196
95 46 80 99 97 295 312 7 347 348 7 4 350 346 37 32 35 30 60 60 79 78 90 104 95 103 118 109 106 106 103 98 97 99 93 84 84 85 82 76 73 86 94 97 97 94 80 73 82 90 98 127 135 130 139 149 148 151 156 165 179 194 197
159 211 167 149 140 86 1 353 343 13 31 17 349 340 10 26 32 44 37 44 42 50 55 72 91 94 94 93 89 85 81 74 73 78 82 79 74 79 86 93 108 119 119 103 97 102 103 109 117 127 125 118 115 132 136 139 143 152 162 167 171 188 191
213 74 146 124 115 116 82 35 354 358 11 13 355 354 17 41 50 48 37 37 41 37 45 39 59 56 54 68 66 64 58 59 55 49 47 55 62 57 68 73 68 66 67 85 100 109 114 127 133 136 129 132 136 146 146 147 150 158 162 170 172 186 186
85 36 54 118 112 93 72 50 21 5 10 11 353 336 24 45 57 58 54 49 49 44 38 31 46 56 44 48 61 66 58 54 53 49 45 41 44 41 42 36 30 43 46 57 58 62 74 96 113 114 111 124 150 155 154 150 150 160 162 162 160 173 181
164 165 198 184 131 152 109 70 19 356 359 6 15 356 26 44 46 53 69 60 55 51 41 41 45 49 40 35 43 55 51 48 49 54 54 52 50 46 42 42 44 47 47 67 94 112 134 152 146 139 142 147 156 154 137 142 152 153 154 157 158 160 167
121 21 76 51 47 81 34 87 70 20 4 39 46 40 34 48 53 54 68 73 61 56 51 44 50 48 45 42 50 58 53 48 46 46 50 56 62 64 56 64 59 71 79 112 137 148 163 165 155 151 146 144 135 132 139 146 159 156 152 142 141 151 160
49 34 78 72 68 90 97 74 83 93 336 59 67 51 48 43 42 49 63 70 83 76 62 55 50 52 52 46 56 64 61 58 58 59 57 58 65 77 81 83 111 132 149 163 168 159 160 164 155 155 149 143 140 146 152 158 160 152 150 142 141 128 117
111 49 81 95 101 96 88 88 91 75 33 56 75 69 62 64 59 53 51 48 52 64 65 59 50 46 55 54 52 55 58 55 51 56 62 64 62 63 79 103 123 150 160 160 149 151 163 170 166 165 153 143 143 141 141 153 157 145 134 122 113 102 88